| time (UTC) | temp F | wind direction | speed knots | gust knots | rain 1hr in | rain 24hr in | rain mn in | humidity % | barometer mb |
| 20260505223052 | 45 | 21 | 1.7 | 4.3 | 0.02 | 0.16 | 0.16 | 82 | 1013.5 |
| 20260505221556 | 45 | 24 | 1.7 | 4.3 | 0.01 | 0.15 | 0.15 | 81 | 1013.5 |
| 20260505220055 | 45 | 23 | 1.7 | 4.3 | 0.01 | 0.15 | 0.15 | 81 | 1013.5 |
| 20260505214549 | 45 | 18 | 1.7 | 5.2 | 0.01 | 0.15 | 0.15 | 82 | 1013.4 |
| 20260505213048 | 45 | 355 | 4.3 | 6.1 | 0.00 | 0.14 | 0.14 | 80 | 1013.4 |
| 20260505211558 | 45 | 11 | 4.3 | 7.0 | 0.00 | 0.14 | 0.14 | 82 | 1013.3 |
| 20260505210046 | 45 | 359 | 4.3 | 8.7 | 0.00 | 0.14 | 0.14 | 82 | 1013.3 |
| 20260505204546 | 45 | 17 | 5.2 | 7.8 | 0.00 | 0.14 | 0.14 | 80 | 1013.5 |
| 20260505203046 | 45 | 320 | 3.5 | 7.8 | 0.00 | 0.14 | 0.14 | 83 | 1013.6 |
| 20260505201549 | 45 | 340 | 4.3 | 7.8 | 0.00 | 0.14 | 0.14 | 84 | 1013.7 |
| 20260505200048 | 45 | 346 | 4.3 | 7.0 | 0.00 | 0.14 | 0.14 | 83 | 1013.7 |
| 20260505194545 | 44 | 20 | 4.3 | 7.0 | 0.01 | 0.14 | 0.14 | 83 | 1014.0 |
| 20260505193058 | 45 | 349 | 4.3 | 7.0 | 0.02 | 0.14 | 0.14 | 83 | 1013.8 |
| 20260505191544 | 45 | 333 | 4.3 | 7.0 | 0.02 | 0.14 | 0.14 | 83 | 1013.9 |
| 20260505190045 | 44 | 348 | 5.2 | 8.7 | 0.02 | 0.13 | 0.13 | 84 | 1013.9 |
| 20260505184542 | 44 | 26 | 5.2 | 8.7 | 0.03 | 0.13 | 0.13 | 85 | 1013.9 |
| 20260505183043 | 45 | 1 | 2.6 | 5.2 | 0.04 | 0.12 | 0.12 | 84 | 1014.0 |
| 20260505181546 | 44 | 15 | 4.3 | 7.8 | 0.04 | 0.11 | 0.11 | 84 | 1013.9 |
| 20260505180038 | 45 | 6 | 5.2 | 7.8 | 0.05 | 0.11 | 0.11 | 86 | 1013.8 |
| 20260505174538 | 44 | 16 | 4.3 | 7.0 | 0.06 | 0.10 | 0.10 | 86 | 1013.9 |
| 20260505173037 | 44 | 356 | 2.6 | 6.1 | 0.05 | 0.08 | 0.08 | 87 | 1014.0 |
| 20260505171535 | 44 | 333 | 3.5 | 6.1 | 0.05 | 0.07 | 0.07 | 84 | 1013.9 |
| 20260505170034 | 45 | 309 | 3.5 | 7.8 | 0.04 | 0.06 | 0.06 | 83 | 1014.0 |
| 20260505164531 | 45 | 309 | 4.3 | 7.8 | 0.02 | 0.04 | 0.04 | 84 | 1013.6 |
| 20260505163030 | 45 | 318 | 6.1 | 9.6 | 0.01 | 0.03 | 0.03 | 83 | 1013.3 |
| 20260505161538 | 45 | 327 | 5.2 | 8.7 | 0.00 | 0.02 | 0.02 | 83 | 1013.3 |
| 20260505153021 | 45 | 284 | 3.5 | 5.2 | 0.00 | 0.02 | 0.02 | 81 | 1013.0 |
| 20260505151519 | 46 | 275 | 1.7 | 5.2 | 0.00 | 0.02 | 0.02 | 82 | 1013.0 |
| 20260505124601 | 45 | 293 | 3.5 | 7.8 | 0.00 | 0.00 | 0.00 | 74 | 1011.2 |
| 20260505123102 | 45 | 294 | 4.3 | 8.7 | 0.00 | 0.00 | 0.00 | 72 | 1010.8 |
| 20260505121556 | 45 | 302 | 4.3 | 9.6 | 0.00 | 0.00 | 0.00 | 73 | 1010.6 |
| 20260505120059 | 46 | 297 | 7.0 | 10.4 | 0.00 | 0.00 | 0.00 | 68 | 1010.4 |
| 20260505114551 | 46 | 295 | 6.1 | 10.4 | 0.00 | 0.00 | 0.00 | 68 | 1010.4 |
| 20260505113053 | 46 | 300 | 5.2 | 7.8 | 0.00 | 0.00 | 0.00 | 68 | 1010.1 |
| 20260505111549 | 46 | 321 | 4.3 | 7.0 | 0.00 | 0.00 | 0.00 | 68 | 1010.2 |
| 20260505101550 | 46 | 293 | 2.6 | 4.3 | 0.00 | 0.00 | 0.00 | 71 | 1010.1 |
| 20260505100046 | 46 | 290 | 1.7 | 4.3 | 0.00 | 0.00 | 0.00 | 74 | 1009.7 |
| 20260505094545 | 46 | 294 | 2.6 | 4.3 | 0.00 | 0.00 | 0.00 | 73 | 1009.7 |
| 20260505093044 | 46 | 314 | 1.7 | 3.5 | 0.00 | 0.00 | 0.00 | 76 | 1009.4 |
| 20260505091543 | 46 | 302 | 1.7 | 3.5 | 0.00 | 0.00 | 0.00 | 76 | 1009.6 |
| 20260505090046 | 46 | 305 | 0.9 | 1.7 | 0.00 | 0.00 | 0.00 | 80 | 1009.7 |
| 20260505084551 | 46 | 304 | 0.0 | 1.7 | 0.00 | 0.00 | 0.00 | 81 | 1009.8 |
| 20260505083053 | 46 | 260 | 0.0 | 1.7 | 0.00 | 0.00 | 0.00 | 72 | 1009.8 |
| 20260505081539 | 46 | 212 | 0.9 | 2.6 | 0.00 | 0.00 | 0.00 | 77 | 1010.2 |
| 20260505080045 | 46 | 207 | 0.9 | 2.6 | 0.00 | 0.00 | 0.00 | 78 | 1010.1 |
| 20260505074534 | 47 | 314 | 0.0 | 1.7 | 0.00 | 0.00 | 0.00 | 71 | 1009.5 |
| 20260505073035 | 47 | 329 | 0.9 | 3.5 | 0.00 | 0.00 | 0.00 | 69 | 1009.3 |
| 20260505071543 | 48 | 311 | 2.6 | 5.2 | 0.00 | 0.00 | 0.00 | 69 | 1009.2 |
| 20260505070028 | 48 | 300 | 2.6 | 6.1 | 0.00 | 0.00 | 0.00 | 69 | 1009.1 |
| 20260505064528 | 48 | 316 | 4.3 | 7.8 | 0.00 | 0.00 | 0.00 | 66 | 1008.9 |
| 20260505063023 | 48 | 337 | 4.3 | 8.7 | 0.00 | 0.00 | 0.00 | 69 | 1008.3 |
| 20260505061520 | 48 | 337 | 4.3 | 8.7 | 0.00 | 0.00 | 0.00 | 73 | 1008.0 |
| 20260505060032 | 48 | 339 | 5.2 | 7.8 | 0.00 | 0.00 | 0.00 | 76 | 1007.7 |
| 20260505054517 | 48 | 333 | 4.3 | 7.8 | 0.00 | 0.00 | 0.00 | 76 | 1007.9 |
| 20260505053017 | 49 | 336 | 6.1 | 14.8 | 0.00 | 0.00 | 0.00 | 76 | 1007.6 |
| 20260505051512 | 50 | 15 | 11.3 | 16.5 | 0.00 | 0.00 | 0.00 | 73 | 1007.0 |
| 20260505041505 | 54 | 5 | 11.3 | 20.0 | 0.00 | 0.00 | 0.00 | 58 | 1006.9 |
| 20260505040004 | 56 | 330 | 16.5 | 23.5 | 0.00 | 0.00 | 0.00 | 51 | 1006.7 |
| 20260505034503 | 57 | 359 | 14.8 | 20.9 | 0.00 | 0.00 | 0.00 | 47 | 1006.5 |
| 20260505033002 | 58 | 340 | 13.9 | 19.1 | 0.00 | 0.00 | 0.00 | 46 | 1006.7 |
| 20260505031502 | 58 | 359 | 13.0 | 16.5 | 0.00 | 0.00 | 0.00 | 46 | 1006.8 |
| 20260505024559 | 59 | 312 | 13.0 | 23.5 | 0.00 | 0.00 | 0.00 | 45 | 1006.0 |
| 20260505023058 | 61 | 332 | 17.4 | 26.9 | 0.00 | 0.00 | 0.00 | 42 | 1005.4 |
| 20260505021557 | 63 | 359 | 13.0 | 20.0 | 0.00 | 0.00 | 0.00 | 37 | 1005.3 |
| 20260505020157 | 64 | 5 | 12.2 | 18.2 | 0.00 | 0.00 | 0.00 | 36 | 1005.4 |
| 20260505014605 | 64 | 338 | 10.4 | 16.5 | 0.00 | 0.00 | 0.00 | 35 | 1005.1 |
| 20260505013055 | 65 | 6 | 10.4 | 18.2 | 0.00 | 0.00 | 0.00 | 34 | 1004.3 |
| 20260505011555 | 66 | 351 | 11.3 | 18.2 | 0.00 | 0.00 | 0.00 | 33 | 1004.0 |
| 20260505010056 | 67 | 354 | 14.8 | 19.1 | 0.00 | 0.00 | 0.00 | 32 | 1003.7 |
| 20260505004557 | 68 | 336 | 13.9 | 18.2 | 0.00 | 0.00 | 0.00 | 31 | 1003.3 |
| 20260505003054 | 68 | 338 | 13.0 | 20.9 | 0.00 | 0.00 | 0.00 | 30 | 1003.0 |
| 20260505001553 | 69 | 349 | 15.6 | 22.6 | 0.00 | 0.00 | 0.00 | 29 | 1002.7 |
| 20260505000056 | 70 | 347 | 17.4 | 23.5 | 0.00 | 0.00 | 0.00 | 29 | 1002.1 |
| 20260504234552 | 70 | 355 | 13.0 | 21.7 | 0.00 | 0.00 | 0.00 | 29 | 1002.0 |
| 20260504233052 | 72 | 345 | 17.4 | 24.3 | 0.00 | 0.00 | 0.00 | 29 | 1001.6 |
| 20260504231553 | 73 | 334 | 14.8 | 22.6 | 0.00 | 0.00 | 0.00 | 28 | 1001.1 |
| 20260504230052 | 73 | 354 | 16.5 | 22.6 | 0.00 | 0.00 | 0.00 | 28 | 1000.9 |
| 20260504224549 | 74 | 4 | 16.5 | 22.6 | 0.00 | 0.00 | 0.00 | 27 | 1000.9 |